This is the latest recevied weather packets stored in our database for station/object OE3APM-13. If no packets are shown the sender has not sent any weather packets the latest 10 day(s).
| Time | Temp. | Humidity | Pressure | Rain* | Wind** | Luminosity | Snow |
|---|---|---|---|---|---|---|---|
| 1777722246 | 22.78° C | 29% | 1023 hPa | 0 mm | - | 838 W/m² | - |
| 1777721946 | 22.22° C | 31% | 1023.1 hPa | 0 mm | - | 838 W/m² | - |
| 1777721647 | 22.22° C | 29% | 1023.2 hPa | 0 mm | - | 840 W/m² | - |
| 1777721345 | 22.22° C | 31% | 1023.2 hPa | 0 mm | - | 842 W/m² | - |
| 1777721046 | 22.22° C | 34% | 1023.3 hPa | 0 mm | - | 842 W/m² | - |
| 1777720747 | 22.22° C | 30% | 1023.4 hPa | 0 mm | - | 844 W/m² | - |
| 1777720443 | 22.22° C | 29% | 1023.4 hPa | 0 mm | - | 849 W/m² | - |
| 1777720145 | 22.22° C | 35% | 1023.4 hPa | 0 mm | - | 851 W/m² | - |
| 1777719844 | 21.67° C | 32% | 1023.5 hPa | 0 mm | - | 854 W/m² | - |
| 1777719544 | 21.67° C | 33% | 1023.5 hPa | 0 mm | - | 856 W/m² | - |
| 1777719243 | 21.67° C | 30% | 1023.6 hPa | 0 mm | - | 849 W/m² | - |
| 1777718944 | 21.67° C | 30% | 1023.6 hPa | 0 mm | - | 854 W/m² | - |
| 1777718645 | 21.67° C | 29% | 1023.7 hPa | 0 mm | - | 865 W/m² | - |
| 1777718044 | 21.67° C | 32% | 1023.7 hPa | 0 mm | - | 853 W/m² | - |
| 1777717743 | 21.67° C | 35% | 1023.7 hPa | 0 mm | - | 854 W/m² | - |
| 1777717441 | 21.67° C | 35% | 1024 hPa | 0 mm | - | 854 W/m² | - |
| 1777717134 | 21.67° C | 35% | 1024.1 hPa | 0 mm | - | 849 W/m² | - |
| 1777716829 | 21.67° C | 34% | 1024.1 hPa | 0 mm | - | 847 W/m² | - |
| 1777716518 | 21.11° C | 34% | 1024.2 hPa | 0 mm | - | 846 W/m² | - |
| 1777716212 | 21.11° C | 36% | 1024.1 hPa | 0 mm | - | 849 W/m² | - |
| 1777715911 | 21.11° C | 36% | 1024.3 hPa | 0 mm | - | 840 W/m² | - |
| 1777715612 | 21.11° C | 37% | 1024.3 hPa | 0 mm | - | 844 W/m² | - |
| 1777715310 | 21.11° C | 31% | 1024.3 hPa | 0 mm | - | 838 W/m² | - |
| 1777715009 | 21.11° C | 35% | 1024.4 hPa | 0 mm | - | 835 W/m² | - |
| 1777714711 | 21.11° C | 34% | 1024.5 hPa | 0 mm | - | 831 W/m² | - |
* Rain latest hour (hover to see other rain measurements)
** Current wind speed in m/s (hover to see current wind gust speed)